GAP2924 RPLK-RPLL

Flight info

Callsign GAP2924
Flight time 0h 41m
Altitude 28000
Route NGA2B NGA W9 AKDAP AKDAP5R
Aircraft A320/M-SDE3FGHIRWY/LB1

Departure

Time 2026-05-06 16:21
Airport Bicol International Airport (RPLK)

Arrival

Time 2026-05-06 17:02
Airport Ninoy Aquino International Airport (RPLL)
Time Latitude Longitude Altitude Speed Heading
2026-05-06 15:53 13.11233 123.68107 301 ft 0 kts 136°
2026-05-06 16:13 13.11237 123.68103 308 ft 3 kts 136°
2026-05-06 16:13 13.11252 123.68088 302 ft 3 kts 136°
2026-05-06 16:13 13.11265 123.68076 302 ft 3 kts 136°
2026-05-06 16:14 13.11277 123.68060 302 ft 3 kts 101°
2026-05-06 16:14 13.11280 123.68040 303 ft 3 kts 89°
2026-05-06 16:14 13.11275 123.68022 303 ft 0 kts 51°
2026-05-06 16:14 13.11280 123.68028 303 ft 3 kts 51°
2026-05-06 16:15 13.11289 123.68039 305 ft 0 kts 50°
2026-05-06 16:16 13.11294 123.68046 303 ft 5 kts 50°
2026-05-06 16:16 13.11342 123.68086 303 ft 12 kts 34°
2026-05-06 16:17 13.11413 123.68082 306 ft 9 kts 320°
2026-05-06 16:17 13.11449 123.68050 309 ft 6 kts 317°
2026-05-06 16:17 13.11477 123.68009 309 ft 9 kts 270°
2026-05-06 16:17 13.11438 123.67953 307 ft 10 kts 227°
2026-05-06 16:18 13.11369 123.67876 309 ft 20 kts 228°
2026-05-06 16:18 13.11246 123.67740 310 ft 33 kts 227°
2026-05-06 16:18 13.11067 123.67542 310 ft 40 kts 227°
2026-05-06 16:18 13.10877 123.67333 309 ft 37 kts 227°
2026-05-06 16:19 13.10717 123.67156 307 ft 32 kts 227°
2026-05-06 16:19 13.10555 123.67033 308 ft 20 kts 192°
2026-05-06 16:19 13.10486 123.66976 309 ft 9 kts 278°
2026-05-06 16:19 13.10522 123.66948 310 ft 5 kts
2026-05-06 16:20 13.10543 123.66967 309 ft 3 kts 49°
2026-05-06 16:20 13.10591 123.67023 309 ft 34 kts 48°
2026-05-06 16:20 13.10934 123.67401 310 ft 106 kts 47°
2026-05-06 16:20 13.11571 123.68104 310 ft 161 kts 47°
2026-05-06 16:21 13.12353 123.68951 877 ft 162 kts 47°
2026-05-06 16:21 13.13123 123.69810 1495 ft 166 kts 48°
2026-05-06 16:21 13.13903 123.70680 2092 ft 170 kts 47°
2026-05-06 16:21 13.14758 123.71626 2365 ft 192 kts 48°
2026-05-06 16:22 13.15728 123.72696 2638 ft 217 kts 48°
2026-05-06 16:22 13.16813 123.73894 3002 ft 242 kts 48°
2026-05-06 16:22 13.17592 123.74755 3345 ft 252 kts 48°
2026-05-06 16:22 13.18800 123.76087 4165 ft 257 kts 49°
2026-05-06 16:23 13.20027 123.77442 5002 ft 261 kts 49°
2026-05-06 16:23 13.21701 123.79289 6068 ft 267 kts 49°
2026-05-06 16:23 13.22543 123.80218 6574 ft 270 kts 49°
2026-05-06 16:23 13.24423 123.81952 7518 ft 279 kts 28°
2026-05-06 16:24 13.25665 123.82338 7982 ft 286 kts
2026-05-06 16:24 13.27631 123.81987 8699 ft 295 kts 334°
2026-05-06 16:24 13.29235 123.80649 9416 ft 302 kts 314°
2026-05-06 16:24 13.30731 123.79118 10136 ft 304 kts 321°
2026-05-06 16:25 13.32543 123.77924 10454 ft 321 kts 335°
2026-05-06 16:25 13.34659 123.76971 10613 ft 342 kts 339°
2026-05-06 16:25 13.36924 123.76094 11071 ft 351 kts 341°
2026-05-06 16:25 13.39243 123.75263 11674 ft 355 kts 342°
2026-05-06 16:26 13.41588 123.74433 12307 ft 359 kts 339°
2026-05-06 16:26 13.43805 123.73227 12918 ft 364 kts 325°
2026-05-06 16:26 13.45670 123.71503 13538 ft 368 kts 311°
2026-05-06 16:26 13.47088 123.69308 14091 ft 372 kts 296°
2026-05-06 16:27 13.47935 123.66782 14613 ft 376 kts 285°
2026-05-06 16:27 13.48603 123.64171 15135 ft 379 kts 285°
2026-05-06 16:27 13.49277 123.61538 15659 ft 383 kts 285°
2026-05-06 16:27 13.49959 123.58885 16157 ft 386 kts 285°
2026-05-06 16:28 13.50654 123.56207 16662 ft 390 kts 285°
2026-05-06 16:28 13.51358 123.53501 17150 ft 393 kts 285°
2026-05-06 16:28 13.52065 123.50776 17641 ft 397 kts 285°
2026-05-06 16:28 13.52779 123.48023 18129 ft 400 kts 285°
2026-05-06 16:29 13.53498 123.45253 18560 ft 403 kts 285°
2026-05-06 16:29 13.54221 123.42458 18996 ft 406 kts 285°
2026-05-06 16:29 13.54948 123.39645 19454 ft 408 kts 285°
2026-05-06 16:29 13.55677 123.36823 19910 ft 410 kts 285°
2026-05-06 16:30 13.56409 123.33979 20373 ft 412 kts 285°
2026-05-06 16:30 13.56895 123.32088 20672 ft 414 kts 285°
2026-05-06 16:30 13.57882 123.28287 21282 ft 417 kts 286°
2026-05-06 16:30 13.58910 123.25500 21737 ft 419 kts 296°
2026-05-06 16:31 13.60201 123.22801 22187 ft 421 kts 296°
2026-05-06 16:31 13.61498 123.20095 22653 ft 423 kts 296°
2026-05-06 16:31 13.62802 123.17372 23072 ft 426 kts 296°
2026-05-06 16:31 13.64110 123.14638 23493 ft 428 kts 296°
2026-05-06 16:32 13.65427 123.11884 23833 ft 430 kts 296°
2026-05-06 16:32 13.66750 123.09119 24172 ft 432 kts 296°
2026-05-06 16:32 13.68080 123.06343 24520 ft 433 kts 296°
2026-05-06 16:32 13.69395 123.03591 24858 ft 435 kts 296°
2026-05-06 16:33 13.70745 123.00759 25206 ft 436 kts 296°
2026-05-06 16:33 13.72064 122.97989 25544 ft 438 kts 296°
2026-05-06 16:33 13.73404 122.95175 25858 ft 439 kts 295°
2026-05-06 16:34 13.76094 122.89506 26486 ft 442 kts 295°
2026-05-06 16:34 13.77447 122.86659 26797 ft 444 kts 295°
2026-05-06 16:34 13.78806 122.83804 27095 ft 446 kts 295°
2026-05-06 16:34 13.80169 122.80936 27389 ft 447 kts 295°
2026-05-06 16:35 13.81536 122.78058 27701 ft 448 kts 295°
2026-05-06 16:35 13.82908 122.75172 27885 ft 449 kts 295°
2026-05-06 16:35 13.84262 122.72317 27916 ft 437 kts 295°
2026-05-06 16:35 13.85586 122.69528 27923 ft 432 kts 295°
2026-05-06 16:36 13.86901 122.66765 27700 ft 426 kts 295°
2026-05-06 16:36 13.88201 122.64039 27452 ft 422 kts 295°
2026-05-06 16:36 13.89491 122.61329 27211 ft 421 kts 295°
2026-05-06 16:36 13.90754 122.58666 26969 ft 419 kts 295°
2026-05-06 16:37 13.92026 122.55974 26730 ft 418 kts 295°
2026-05-06 16:37 13.93295 122.53290 26491 ft 416 kts 295°
2026-05-06 16:37 13.94563 122.50613 26256 ft 415 kts 295°
2026-05-06 16:37 13.95821 122.47958 25931 ft 410 kts 295°
2026-05-06 16:38 13.97068 122.45321 25436 ft 408 kts 295°
2026-05-06 16:38 13.98310 122.42694 24958 ft 407 kts 295°
2026-05-06 16:38 13.99549 122.40076 24479 ft 405 kts 295°
2026-05-06 16:38 14.00782 122.37470 24011 ft 404 kts 295°
2026-05-06 16:39 14.01991 122.34910 23524 ft 403 kts 295°
2026-05-06 16:39 14.03209 122.32323 23150 ft 399 kts 295°
2026-05-06 16:39 14.04412 122.29731 22559 ft 399 kts 291°
2026-05-06 16:39 14.05126 122.27029 22458 ft 384 kts 279°
2026-05-06 16:40 14.05574 122.24365 22370 ft 371 kts 279°
2026-05-06 16:40 14.06009 122.21780 22290 ft 365 kts 279°
2026-05-06 16:40 14.06441 122.19199 22195 ft 366 kts 279°
2026-05-06 16:40 14.06868 122.16608 22130 ft 366 kts 279°
2026-05-06 16:41 14.07291 122.14023 22046 ft 366 kts 279°
2026-05-06 16:41 14.07714 122.11439 21970 ft 366 kts 279°
2026-05-06 16:41 14.08139 122.08858 21892 ft 365 kts 279°
2026-05-06 16:41 14.08563 122.06282 21810 ft 365 kts 279°
2026-05-06 16:42 14.08984 122.03705 21728 ft 365 kts 279°
2026-05-06 16:42 14.09404 122.01135 21652 ft 364 kts 279°
2026-05-06 16:42 14.09823 121.98563 21570 ft 364 kts 279°
2026-05-06 16:42 14.10242 121.95995 21490 ft 363 kts 279°
2026-05-06 16:43 14.10656 121.93464 21420 ft 363 kts 279°
2026-05-06 16:43 14.11077 121.90897 21340 ft 363 kts 279°
2026-05-06 16:43 14.11496 121.88339 21265 ft 362 kts 279°
2026-05-06 16:43 14.11914 121.85769 21178 ft 362 kts 278°
2026-05-06 16:44 14.12327 121.83211 21113 ft 362 kts 278°
2026-05-06 16:44 14.12740 121.80653 21033 ft 362 kts 278°
2026-05-06 16:44 14.13156 121.78091 20704 ft 362 kts 279°
2026-05-06 16:44 14.13573 121.75535 20255 ft 362 kts 279°
2026-05-06 16:45 14.13990 121.72979 19796 ft 362 kts 279°
2026-05-06 16:45 14.14406 121.70417 19338 ft 363 kts 279°
2026-05-06 16:45 14.14823 121.67844 18873 ft 364 kts 279°
2026-05-06 16:45 14.15240 121.65263 18414 ft 366 kts 279°
2026-05-06 16:46 14.15659 121.62675 17906 ft 367 kts 279°
2026-05-06 16:46 14.16078 121.60080 17434 ft 366 kts 279°
2026-05-06 16:46 14.16494 121.57497 16976 ft 366 kts 279°
2026-05-06 16:46 14.16903 121.54947 16519 ft 365 kts 279°
2026-05-06 16:47 14.17319 121.52365 16065 ft 365 kts 279°
2026-05-06 16:47 14.17737 121.49771 15604 ft 366 kts 279°
2026-05-06 16:47 14.18154 121.47188 15141 ft 366 kts 279°
2026-05-06 16:47 14.18575 121.44595 14652 ft 367 kts 279°
2026-05-06 16:48 14.18997 121.41996 14184 ft 368 kts 279°
2026-05-06 16:48 14.19416 121.39399 13717 ft 368 kts 279°
2026-05-06 16:48 14.19834 121.36793 13209 ft 368 kts 279°
2026-05-06 16:48 14.20244 121.34230 12735 ft 366 kts 279°
2026-05-06 16:49 14.20659 121.31644 12299 ft 363 kts 279°
2026-05-06 16:49 14.21068 121.29089 11864 ft 360 kts 279°
2026-05-06 16:49 14.21474 121.26551 11392 ft 358 kts 279°
2026-05-06 16:49 14.21879 121.24029 10909 ft 356 kts 279°
2026-05-06 16:50 14.22282 121.21515 10427 ft 355 kts 279°
2026-05-06 16:50 14.22679 121.19030 10189 ft 345 kts 279°
2026-05-06 16:50 14.23059 121.16632 10076 ft 333 kts 279°
2026-05-06 16:50 14.23428 121.14316 9959 ft 322 kts 279°
2026-05-06 16:51 14.23788 121.12075 9785 ft 314 kts 279°
2026-05-06 16:51 14.24140 121.09867 9455 ft 311 kts 279°
2026-05-06 16:51 14.24490 121.07677 9071 ft 309 kts 279°
2026-05-06 16:51 14.24840 121.05494 8705 ft 307 kts 279°
2026-05-06 16:52 14.25188 121.03326 8345 ft 306 kts 279°
2026-05-06 16:52 14.25533 121.01171 7987 ft 304 kts 279°
2026-05-06 16:52 14.25872 120.99039 7481 ft 299 kts 279°
2026-05-06 16:52 14.26207 120.96931 6846 ft 297 kts 280°
2026-05-06 16:53 14.26541 120.94843 6153 ft 296 kts 280°
2026-05-06 16:53 14.26874 120.92752 5441 ft 294 kts 279°
2026-05-06 16:53 14.27190 120.90751 5171 ft 277 kts 279°
2026-05-06 16:53 14.27486 120.88871 5030 ft 255 kts 279°
2026-05-06 16:54 14.27768 120.87106 4890 ft 247 kts 281°
2026-05-06 16:54 14.28339 120.85445 4742 ft 244 kts 301°
2026-05-06 16:54 14.29320 120.84034 4600 ft 240 kts 308°
2026-05-06 16:54 14.30310 120.82671 4446 ft 233 kts 308°
2026-05-06 16:55 14.31252 120.81365 4300 ft 227 kts 308°
2026-05-06 16:55 14.32248 120.80137 4166 ft 221 kts 321°
2026-05-06 16:55 14.33514 120.79293 4034 ft 213 kts 340°
2026-05-06 16:55 14.34928 120.78915 3909 ft 208 kts 359°
2026-05-06 16:56 14.36354 120.78998 3728 ft 204 kts 16°
2026-05-06 16:56 14.37663 120.79514 3549 ft 201 kts 33°
2026-05-06 16:56 14.38743 120.80400 3398 ft 198 kts 51°
2026-05-06 16:56 14.39517 120.81558 3270 ft 196 kts 62°
2026-05-06 16:57 14.40197 120.82781 3098 ft 196 kts 62°
2026-05-06 16:57 14.40876 120.83999 2920 ft 196 kts 62°
2026-05-06 16:57 14.41538 120.85187 2791 ft 186 kts 62°
2026-05-06 16:57 14.42168 120.86319 2599 ft 177 kts 62°
2026-05-06 16:58 14.42758 120.87378 2429 ft 168 kts 62°
2026-05-06 16:58 14.43325 120.88397 2291 ft 160 kts 61°
2026-05-06 16:58 14.43861 120.89359 2222 ft 150 kts 61°
2026-05-06 16:58 14.44374 120.90282 2091 ft 147 kts 62°
2026-05-06 16:59 14.44883 120.91196 1898 ft 145 kts 61°
2026-05-06 16:59 14.45378 120.92086 1788 ft 142 kts 64°
2026-05-06 16:59 14.45875 120.92981 1578 ft 143 kts 61°
2026-05-06 16:59 14.46364 120.93859 1383 ft 139 kts 62°
2026-05-06 17:00 14.46845 120.94724 1208 ft 140 kts 61°
2026-05-06 17:00 14.47323 120.95583 1031 ft 141 kts 60°
2026-05-06 17:00 14.47808 120.96455 854 ft 140 kts 61°
2026-05-06 17:00 14.48292 120.97325 657 ft 140 kts 62°
2026-05-06 17:01 14.48772 120.98192 485 ft 138 kts 63°
2026-05-06 17:01 14.49244 120.99053 301 ft 139 kts 62°
2026-05-06 17:01 14.49721 120.99921 132 ft 139 kts 63°
2026-05-06 17:01 14.50201 121.00738 66 ft 121 kts 59°
2026-05-06 17:02 14.50526 121.01350 68 ft 73 kts 60°
2026-05-06 17:02 14.50692 121.01649 69 ft 28 kts 54°
2026-05-06 17:02 14.50803 121.01750 64 ft 15 kts 36°
2026-05-06 17:02 14.50894 121.01814 64 ft 13 kts 33°
2026-05-06 17:03 14.50924 121.01804 66 ft 4 kts 297°
2026-05-06 17:03 14.50923 121.01776 65 ft 6 kts 252°
2026-05-06 17:03 14.50897 121.01722 66 ft 8 kts 243°
2026-05-06 17:03 14.50891 121.01672 68 ft 6 kts 298°
2026-05-06 17:04 14.50918 121.01642 63 ft 5 kts 313°
2026-05-06 17:04 14.50941 121.01617 68 ft 4 kts 314°
2026-05-06 17:04 14.50967 121.01589 67 ft 7 kts 315°
2026-05-06 17:04 14.51012 121.01545 63 ft 8 kts 315°
2026-05-06 17:05 14.51001 121.01495 60 ft 9 kts 241°
2026-05-06 17:05 14.50986 121.01445 66 ft 5 kts 254°
2026-05-06 17:05 14.50985 121.01441 65 ft 0 kts 254°